Weather History for Syracuse, NY

Change the Weather History Date:

Saturday, June 23, 2012

  Actual Average Record
Temperature  
Mean Temperature 71 °F 69 °F  
Max Temperature 80 °F 80 °F 92 °F (1975)
Min Temperature 61 °F 58 °F 40 °F (1918)
Degree Days  
Heating Degree Days 0 1  
Month to date heating degree days 42 54  
Since 1 June heating degree days 42 54  
Since 1 July heating degree days 5155 6644  
Cooling Degree Days 6 5  
Month to date cooling degree days 117 75  
Year to date cooling degree days 212 105  
Since 1 June cooling degree days 117 75  
Growing Degree Days 20 (Base 50)    
Moisture  
Dew Point 57 °F    
Average Humidity 68    
Maximum Humidity 90    
Minimum Humidity 45    
Precipitation  
Precipitation 0.00 in 0.11 in 1.00 in (1969)
Month to date precipitation 1.90 2.52  
Year to date precipitation 14.54 16.45  
Snow  
Snow 0.00 in 0.00 in 0.00 in (2002)
Month to date snowfall 0.0 0.0  
Since 1 June snowfall 0.0 0.0  
Since 1 July snowfall 50.6 123.8  
Snow Depth 0.00 in    
Sea Level Pressure  
Sea Level Pressure 29.94 in    
Wind  
Wind Speed 7 mph (West)    
Max Wind Speed 16 mph    
Max Gust Speed 28 mph    
Visibility 10 miles    
Events      
T = Trace of Precipitation, MM = Missing Value Source: NWS Daily Summary

Daily Weather History Graph

Daily Weather History Graph

Search for Another Location

Airport:

Trip Planner

Search our weather history database for the weather conditions in past years. The results will help you decide how hot, cold, wet, or windy it might be!

Date:

Astronomy

Jun. 23, 2012 Rise Set
Actual Time 5:25 AM EDT 8:47 PM EDT
Civil Twilight 4:50 AM EDT 9:23 PM EDT
Nautical Twilight 4:03 AM EDT 10:09 PM EDT
Astronomical Twilight 3:06 AM EDT 11:07 PM EDT
Moon 9:31 AM EDT (6/23) 11:07 PM EDT (6/23)
Length of Visible Light 16h 33m
Length of Day
15h 22m
Waxing Crescent, 16% of the Moon is Illuminated
Jun 23
Waxing Crescent
Jun 26
First Quarter
Jul 3
Full
Jul 10
Last Quarter
Jul 19
New

Hourly Weather History & Observations

Time (EDT) Temp. Heat Index Dew Point Humidity Pressure Visibility Wind Dir Wind Speed Gust Speed Precip Events Conditions
12:54 AM 66.9 °F - 55.9 °F 68% 29.88 in 10.0 mi WSW 5.8 mph - N/A   Mostly Cloudy
1:54 AM 64.9 °F - 55.9 °F 73% 29.88 in 10.0 mi WSW 3.5 mph - N/A   Scattered Clouds
2:54 AM 63.0 °F - 55.9 °F 78% 29.88 in 10.0 mi WSW 6.9 mph - N/A   Partly Cloudy
3:54 AM 63.0 °F - 55.9 °F 78% 29.88 in 10.0 mi WSW 5.8 mph - N/A   Clear
4:54 AM 61.0 °F - 55.9 °F 83% 29.89 in 10.0 mi SW 3.5 mph - N/A   Partly Cloudy
5:54 AM 61.0 °F - 57.0 °F 87% 29.90 in 10.0 mi WSW 3.5 mph - N/A   Partly Cloudy
6:54 AM 64.9 °F - 57.9 °F 78% 29.91 in 10.0 mi WSW 9.2 mph - N/A   Scattered Clouds
7:54 AM 68.0 °F - 59.0 °F 73% 29.92 in 10.0 mi WSW 11.5 mph - N/A   Scattered Clouds
8:54 AM 70.0 °F - 59.0 °F 68% 29.93 in 10.0 mi West 9.2 mph - N/A   Scattered Clouds
9:54 AM 72.0 °F - 59.0 °F 64% 29.94 in 10.0 mi West 11.5 mph - N/A   Mostly Cloudy
10:54 AM 72.0 °F - 57.9 °F 61% 29.94 in 10.0 mi WNW 12.7 mph - N/A   Mostly Cloudy
11:54 AM 75.9 °F - 60.1 °F 58% 29.93 in 10.0 mi West 11.5 mph 16.1 mph N/A   Mostly Cloudy
12:54 PM 75.0 °F - 57.9 °F 55% 29.94 in 10.0 mi NW 9.2 mph 18.4 mph N/A   Mostly Cloudy
1:54 PM 79.0 °F - 59.0 °F 50% 29.94 in 10.0 mi West 13.8 mph 19.6 mph N/A   Mostly Cloudy
2:54 PM 80.1 °F 80.4 °F 57.0 °F 45% 29.96 in 10.0 mi NW 10.4 mph - N/A   Mostly Cloudy
3:54 PM 79.0 °F - 55.0 °F 44% 29.97 in 10.0 mi NNW 11.5 mph - N/A   Scattered Clouds
4:54 PM 79.0 °F - 57.9 °F 48% 29.96 in 10.0 mi NW 10.4 mph - N/A   Scattered Clouds
5:54 PM 78.1 °F - 55.0 °F 45% 29.95 in 10.0 mi NW 8.1 mph - N/A   Scattered Clouds
6:54 PM 77.0 °F - 55.0 °F 47% 29.96 in 10.0 mi NW 8.1 mph - N/A   Scattered Clouds
7:54 PM 75.0 °F - 55.9 °F 51% 29.97 in 10.0 mi WNW 6.9 mph - N/A   Scattered Clouds
8:54 PM 72.0 °F - 55.9 °F 57% 29.98 in 10.0 mi NW 6.9 mph - N/A   Scattered Clouds
9:54 PM 66.9 °F - 57.0 °F 70% 29.99 in 10.0 mi North 3.5 mph - N/A   Scattered Clouds
10:54 PM 66.0 °F - 57.0 °F 73% 30.01 in 10.0 mi Calm Calm - N/A   Partly Cloudy
11:54 PM 63.0 °F - 59.0 °F 87% 30.01 in 10.0 mi Calm Calm - N/A   Partly Cloudy